owner,sensor,date,latitude,longitude,air_temperature,qcFlag 
NDBC,ioos:station:wmo:42012:1,2019-07-01T00:50:00Z,30.0650,-87.5550,28.8,11111222 
NDBC,ioos:station:wmo:42012:1,2019-07-01T01:40:00Z,30.0650,-87.5550,28.8,11111222 
NDBC,ioos:station:wmo:42012:1,2019-07-01T02:50:00Z,30.0650,-87.5550,28.8,11111222 
NDBC,ioos:station:wmo:42012:1,2019-07-01T03:50:00Z,30.0650,-87.5550,28.7,11111222 
NDBC,ioos:station:wmo:42012:1,2019-07-01T04:50:00Z,30.0650,-87.5550,28.7,11111222 
NDBC,ioos:station:wmo:42012:1,2019-07-01T05:50:00Z,30.0650,-87.5550,28.8,11111222 
NDBC,ioos:station:wmo:42012:1,2019-07-01T06:50:00Z,30.0650,-87.5550,28.9,11111222 
NDBC,ioos:station:wmo:42012:1,2019-07-01T07:50:00Z,30.0650,-87.5550,28.7,11111222 
NDBC,ioos:station:wmo:42012:1,2019-07-01T08:50:00Z,30.0650,-87.5550,27.9,11111222 
NDBC,ioos:station:wmo:42012:1,2019-07-01T09:50:00Z,30.0650,-87.5550,28.0,11111222 
NDBC,ioos:station:wmo:42012:1,2019-07-01T10:50:00Z,30.0650,-87.5550,28.5,11111222 
NDBC,ioos:station:wmo:42012:1,2019-07-01T11:50:00Z,30.0650,-87.5550,28.6,11111222 
NDBC,ioos:station:wmo:42012:1,2019-07-01T12:50:00Z,30.0650,-87.5550,28.4,11111222 
NDBC,ioos:station:wmo:42012:1,2019-07-01T13:50:00Z,30.0650,-87.5550,28.4,11111222 
NDBC,ioos:station:wmo:42012:1,2019-07-01T16:10:00Z,30.0650,-87.5550,28.7,11111222 
NDBC,ioos:station:wmo:42012:1,2019-07-01T17:00:00Z,30.0650,-87.5550,28.7,11111222 
NDBC,ioos:station:wmo:42012:1,2019-07-01T17:50:00Z,30.0650,-87.5550,28.8,11111222 
NDBC,ioos:station:wmo:42012:1,2019-07-01T18:50:00Z,30.0650,-87.5550,28.9,11111222 
NDBC,ioos:station:wmo:42012:1,2019-07-01T19:50:00Z,30.0650,-87.5550,29.0,11111222 
NDBC,ioos:station:wmo:42012:1,2019-07-01T20:50:00Z,30.0650,-87.5550,28.9,11111222 
NDBC,ioos:station:wmo:42012:1,2019-07-01T21:50:00Z,30.0650,-87.5550,29.0,11111222 
NDBC,ioos:station:wmo:42012:1,2019-07-01T22:50:00Z,30.0650,-87.5550,29.0,11111222 
NDBC,ioos:station:wmo:42012:1,2019-07-01T23:50:00Z,30.0650,-87.5550,28.9,11111222 
NDBC,ioos:station:wmo:42012:1,2019-07-02T00:50:00Z,30.0650,-87.5550,28.8,11111222 
NDBC,ioos:station:wmo:42012:1,2019-07-02T01:50:00Z,30.0650,-87.5550,28.9,11111222 
NDBC,ioos:station:wmo:42012:1,2019-07-02T02:50:00Z,30.0650,-87.5550,28.9,11111222 
NDBC,ioos:station:wmo:42012:1,2019-07-02T03:50:00Z,30.0650,-87.5550,28.9,11111222 
NDBC,ioos:station:wmo:42012:1,2019-07-02T04:50:00Z,30.0650,-87.5550,28.9,11111222 
NDBC,ioos:station:wmo:42012:1,2019-07-02T05:50:00Z,30.0650,-87.5550,28.8,11111222 
NDBC,ioos:station:wmo:42012:1,2019-07-02T06:50:00Z,30.0650,-87.5550,28.8,11111222 
NDBC,ioos:station:wmo:42012:1,2019-07-02T07:50:00Z,30.0650,-87.5550,28.7,11111222 
NDBC,ioos:station:wmo:42012:1,2019-07-02T08:50:00Z,30.0650,-87.5550,28.6,11111222 
NDBC,ioos:station:wmo:42012:1,2019-07-02T09:50:00Z,30.0650,-87.5550,28.6,11111222 
NDBC,ioos:station:wmo:42012:1,2019-07-02T10:50:00Z,30.0650,-87.5550,28.4,11111222 
NDBC,ioos:station:wmo:42012:1,2019-07-02T11:50:00Z,30.0650,-87.5550,28.0,11111222 
NDBC,ioos:station:wmo:42012:1,2019-07-02T12:50:00Z,30.0650,-87.5550,28.0,11111222 
NDBC,ioos:station:wmo:42012:1,2019-07-02T13:50:00Z,30.0650,-87.5550,27.9,11111222 
NDBC,ioos:station:wmo:42012:1,2019-07-02T14:50:00Z,30.0650,-87.5550,28.0,11111222 
NDBC,ioos:station:wmo:42012:1,2019-07-02T15:50:00Z,30.0650,-87.5550,28.3,11111222 
NDBC,ioos:station:wmo:42012:1,2019-07-02T16:50:00Z,30.0650,-87.5550,28.6,11111222 
NDBC,ioos:station:wmo:42012:1,2019-07-02T17:50:00Z,30.0650,-87.5550,28.6,11111222 
NDBC,ioos:station:wmo:42012:1,2019-07-02T18:50:00Z,30.0650,-87.5550,29.0,11111222 
NDBC,ioos:station:wmo:42012:1,2019-07-02T19:50:00Z,30.0650,-87.5550,29.3,11111222 
NDBC,ioos:station:wmo:42012:1,2019-07-02T20:50:00Z,30.0650,-87.5550,29.3,11111222 
NDBC,ioos:station:wmo:42012:1,2019-07-02T21:50:00Z,30.0650,-87.5550,29.3,11111222 
NDBC,ioos:station:wmo:42012:1,2019-07-02T22:50:00Z,30.0650,-87.5550,29.1,11111222 
NDBC,ioos:station:wmo:42012:1,2019-07-02T23:50:00Z,30.0650,-87.5550,29.1,11111222 
NDBC,ioos:station:wmo:42012:1,2019-07-03T00:50:00Z,30.0650,-87.5550,29.0,11111222 
NDBC,ioos:station:wmo:42012:1,2019-07-03T01:50:00Z,30.0650,-87.5550,29.0,11111222 
NDBC,ioos:station:wmo:42012:1,2019-07-03T02:50:00Z,30.0650,-87.5550,29.1,11111222 
NDBC,ioos:station:wmo:42012:1,2019-07-03T04:00:00Z,30.0650,-87.5550,29.1,11111222 
NDBC,ioos:station:wmo:42012:1,2019-07-03T04:50:00Z,30.0650,-87.5550,29.0,11111222 
NDBC,ioos:station:wmo:42012:1,2019-07-03T05:50:00Z,30.0650,-87.5550,28.9,11111222 
NDBC,ioos:station:wmo:42012:1,2019-07-03T06:50:00Z,30.0650,-87.5550,28.7,11111222 
NDBC,ioos:station:wmo:42012:1,2019-07-03T07:50:00Z,30.0650,-87.5550,28.4,11111222 
NDBC,ioos:station:wmo:42012:1,2019-07-03T08:50:00Z,30.0650,-87.5550,28.2,11111222 
NDBC,ioos:station:wmo:42012:1,2019-07-03T09:50:00Z,30.0650,-87.5550,27.9,11111222 
NDBC,ioos:station:wmo:42012:1,2019-07-03T10:50:00Z,30.0650,-87.5550,27.5,11111222 
NDBC,ioos:station:wmo:42012:1,2019-07-03T11:50:00Z,30.0650,-87.5550,27.5,11111222 
NDBC,ioos:station:wmo:42012:1,2019-07-03T12:50:00Z,30.0650,-87.5550,27.7,11111222 
NDBC,ioos:station:wmo:42012:1,2019-07-03T13:50:00Z,30.0650,-87.5550,27.7,11111222 
NDBC,ioos:station:wmo:42012:1,2019-07-03T14:20:00Z,30.0650,-87.5550,27.8,11111222 
NDBC,ioos:station:wmo:42012:1,2019-07-03T15:50:00Z,30.0650,-87.5550,27.9,11111222 
NDBC,ioos:station:wmo:42012:1,2019-07-03T16:50:00Z,30.0650,-87.5550,28.1,11111222 
NDBC,ioos:station:wmo:42012:1,2019-07-03T17:50:00Z,30.0650,-87.5550,28.6,11111222 
NDBC,ioos:station:wmo:42012:1,2019-07-03T18:50:00Z,30.0650,-87.5550,28.7,11111222 
NDBC,ioos:station:wmo:42012:1,2019-07-03T19:50:00Z,30.0650,-87.5550,29.0,11111222 
NDBC,ioos:station:wmo:42012:1,2019-07-03T20:50:00Z,30.0650,-87.5550,29.0,11111222 
NDBC,ioos:station:wmo:42012:1,2019-07-03T21:50:00Z,30.0650,-87.5550,28.9,11111222 
NDBC,ioos:station:wmo:42012:1,2019-07-03T22:50:00Z,30.0650,-87.5550,29.0,11111222 
NDBC,ioos:station:wmo:42012:1,2019-07-03T23:50:00Z,30.0650,-87.5550,29.3,11111222 
NDBC,ioos:station:wmo:42012:1,2019-07-04T00:50:00Z,30.0650,-87.5550,29.3,11111222 
NDBC,ioos:station:wmo:42012:1,2019-07-04T01:40:00Z,30.0650,-87.5550,29.3,11111222 
NDBC,ioos:station:wmo:42012:1,2019-07-04T02:50:00Z,30.0650,-87.5550,29.5,11111222 
NDBC,ioos:station:wmo:42012:1,2019-07-04T03:50:00Z,30.0650,-87.5550,29.5,11111222 
NDBC,ioos:station:wmo:42012:1,2019-07-04T04:50:00Z,30.0650,-87.5550,29.6,11111222 
NDBC,ioos:station:wmo:42012:1,2019-07-04T05:50:00Z,30.0650,-87.5550,29.5,11111222 
NDBC,ioos:station:wmo:42012:1,2019-07-04T06:50:00Z,30.0650,-87.5550,29.4,11111222 
NDBC,ioos:station:wmo:42012:1,2019-07-04T07:50:00Z,30.0650,-87.5550,29.4,11111222 
NDBC,ioos:station:wmo:42012:1,2019-07-04T08:50:00Z,30.0650,-87.5550,29.3,11111222 
NDBC,ioos:station:wmo:42012:1,2019-07-04T09:50:00Z,30.0650,-87.5550,28.6,11111222 
NDBC,ioos:station:wmo:42012:1,2019-07-04T10:50:00Z,30.0650,-87.5550,28.8,11111222 
NDBC,ioos:station:wmo:42012:1,2019-07-04T11:50:00Z,30.0650,-87.5550,28.6,11111222 
NDBC,ioos:station:wmo:42012:1,2019-07-04T12:40:00Z,30.0650,-87.5550,28.1,11111222 
NDBC,ioos:station:wmo:42012:1,2019-07-04T13:50:00Z,30.0650,-87.5550,28.1,11111222 
NDBC,ioos:station:wmo:42012:1,2019-07-04T14:50:00Z,30.0650,-87.5550,28.4,11111222 
NDBC,ioos:station:wmo:42012:1,2019-07-04T15:50:00Z,30.0650,-87.5550,29.0,11111222 
NDBC,ioos:station:wmo:42012:1,2019-07-04T16:50:00Z,30.0650,-87.5550,29.8,11111222 
NDBC,ioos:station:wmo:42012:1,2019-07-04T17:50:00Z,30.0650,-87.5550,30.3,11111222 
NDBC,ioos:station:wmo:42012:1,2019-07-04T18:50:00Z,30.0650,-87.5550,30.6,11111222 
NDBC,ioos:station:wmo:42012:1,2019-07-04T19:50:00Z,30.0650,-87.5550,30.7,11111222 
NDBC,ioos:station:wmo:42012:1,2019-07-04T20:50:00Z,30.0650,-87.5550,30.8,11111222 
NDBC,ioos:station:wmo:42012:1,2019-07-04T21:50:00Z,30.0650,-87.5550,30.7,11111222 
NDBC,ioos:station:wmo:42012:1,2019-07-04T22:50:00Z,30.0650,-87.5550,30.8,11111222 
NDBC,ioos:station:wmo:42012:1,2019-07-04T23:50:00Z,30.0650,-87.5550,30.8,11111222 
NDBC,ioos:station:wmo:42012:1,2019-07-05T00:50:00Z,30.0650,-87.5550,30.6,11111222 
NDBC,ioos:station:wmo:42012:1,2019-07-05T01:50:00Z,30.0650,-87.5550,30.4,11111222 
NDBC,ioos:station:wmo:42012:1,2019-07-05T02:50:00Z,30.0650,-87.5550,30.4,11111222 
NDBC,ioos:station:wmo:42012:1,2019-07-05T03:50:00Z,30.0650,-87.5550,30.2,11111222 
NDBC,ioos:station:wmo:42012:1,2019-07-05T04:50:00Z,30.0650,-87.5550,30.0,11111222 
NDBC,ioos:station:wmo:42012:1,2019-07-05T05:50:00Z,30.0650,-87.5550,30.0,11111222 
NDBC,ioos:station:wmo:42012:1,2019-07-05T06:50:00Z,30.0650,-87.5550,30.0,11111222 
NDBC,ioos:station:wmo:42012:1,2019-07-05T07:50:00Z,30.0650,-87.5550,30.0,11111222 
NDBC,ioos:station:wmo:42012:1,2019-07-05T08:50:00Z,30.0650,-87.5550,29.6,11111222 
NDBC,ioos:station:wmo:42012:1,2019-07-05T09:50:00Z,30.0650,-87.5550,29.3,11111222 
NDBC,ioos:station:wmo:42012:1,2019-07-05T10:50:00Z,30.0650,-87.5550,29.0,11111222 
NDBC,ioos:station:wmo:42012:1,2019-07-05T11:50:00Z,30.0650,-87.5550,28.8,11111222 
NDBC,ioos:station:wmo:42012:1,2019-07-05T12:50:00Z,30.0650,-87.5550,28.6,11111222 
NDBC,ioos:station:wmo:42012:1,2019-07-05T13:50:00Z,30.0650,-87.5550,28.9,11111222 
NDBC,ioos:station:wmo:42012:1,2019-07-05T14:50:00Z,30.0650,-87.5550,29.2,11111222 
NDBC,ioos:station:wmo:42012:1,2019-07-05T15:50:00Z,30.0650,-87.5550,29.7,11111222 
NDBC,ioos:station:wmo:42012:1,2019-07-05T16:50:00Z,30.0650,-87.5550,30.4,11111222 
NDBC,ioos:station:wmo:42012:1,2019-07-05T17:50:00Z,30.0650,-87.5550,31.6,11111222 
NDBC,ioos:station:wmo:42012:1,2019-07-05T18:50:00Z,30.0650,-87.5550,31.4,11111222 
NDBC,ioos:station:wmo:42012:1,2019-07-05T19:50:00Z,30.0650,-87.5550,31.9,11111222 
NDBC,ioos:station:wmo:42012:1,2019-07-05T20:50:00Z,30.0650,-87.5550,32.0,11111222 
NDBC,ioos:station:wmo:42012:1,2019-07-05T21:50:00Z,30.0650,-87.5550,31.8,11111222 
NDBC,ioos:station:wmo:42012:1,2019-07-05T22:50:00Z,30.0650,-87.5550,31.7,11111222 
NDBC,ioos:station:wmo:42012:1,2019-07-05T23:50:00Z,30.0650,-87.5550,31.7,11111222 
NDBC,ioos:station:wmo:42012:1,2019-07-06T00:50:00Z,30.0650,-87.5550,29.5,11111222 
NDBC,ioos:station:wmo:42012:1,2019-07-06T01:50:00Z,30.0650,-87.5550,30.3,11111222 
NDBC,ioos:station:wmo:42012:1,2019-07-06T02:50:00Z,30.0650,-87.5550,31.0,11111222 
NDBC,ioos:station:wmo:42012:1,2019-07-06T03:50:00Z,30.0650,-87.5550,31.3,11111222 
NDBC,ioos:station:wmo:42012:1,2019-07-06T04:50:00Z,30.0650,-87.5550,31.3,11111222 
NDBC,ioos:station:wmo:42012:1,2019-07-06T05:50:00Z,30.0650,-87.5550,31.0,11111222 
NDBC,ioos:station:wmo:42012:1,2019-07-06T06:50:00Z,30.0650,-87.5550,31.0,11111222 
NDBC,ioos:station:wmo:42012:1,2019-07-06T07:50:00Z,30.0650,-87.5550,30.9,11111222 
NDBC,ioos:station:wmo:42012:1,2019-07-06T08:50:00Z,30.0650,-87.5550,30.6,11111222 
NDBC,ioos:station:wmo:42012:1,2019-07-06T09:50:00Z,30.0650,-87.5550,30.5,11111222 
NDBC,ioos:station:wmo:42012:1,2019-07-06T10:50:00Z,30.0650,-87.5550,30.3,11111222 
NDBC,ioos:station:wmo:42012:1,2019-07-06T11:50:00Z,30.0650,-87.5550,30.0,11111222 
NDBC,ioos:station:wmo:42012:1,2019-07-06T12:50:00Z,30.0650,-87.5550,29.7,11111222 
NDBC,ioos:station:wmo:42012:1,2019-07-06T13:50:00Z,30.0650,-87.5550,29.4,11111222 
NDBC,ioos:station:wmo:42012:1,2019-07-06T14:50:00Z,30.0650,-87.5550,29.6,11111222 
NDBC,ioos:station:wmo:42012:1,2019-07-06T15:50:00Z,30.0650,-87.5550,30.0,11111222 
NDBC,ioos:station:wmo:42012:1,2019-07-06T16:50:00Z,30.0650,-87.5550,30.6,11111222 
NDBC,ioos:station:wmo:42012:1,2019-07-06T17:50:00Z,30.0650,-87.5550,32.3,11111222 
NDBC,ioos:station:wmo:42012:1,2019-07-06T18:50:00Z,30.0650,-87.5550,32.2,11111222 
NDBC,ioos:station:wmo:42012:1,2019-07-06T19:50:00Z,30.0650,-87.5550,32.3,11111222 
NDBC,ioos:station:wmo:42012:1,2019-07-06T20:50:00Z,30.0650,-87.5550,32.2,11111222 
NDBC,ioos:station:wmo:42012:1,2019-07-06T21:50:00Z,30.0650,-87.5550,32.2,11111222 
NDBC,ioos:station:wmo:42012:1,2019-07-06T22:50:00Z,30.0650,-87.5550,32.1,11111222 
NDBC,ioos:station:wmo:42012:1,2019-07-06T23:50:00Z,30.0650,-87.5550,32.0,11111222 
NDBC,ioos:station:wmo:42012:1,2019-07-07T00:50:00Z,30.0650,-87.5550,31.8,11111222 
NDBC,ioos:station:wmo:42012:1,2019-07-07T01:50:00Z,30.0650,-87.5550,31.6,11111222 
NDBC,ioos:station:wmo:42012:1,2019-07-07T02:50:00Z,30.0650,-87.5550,31.4,11111222 
NDBC,ioos:station:wmo:42012:1,2019-07-07T03:50:00Z,30.0650,-87.5550,31.3,11111222 
NDBC,ioos:station:wmo:42012:1,2019-07-07T04:50:00Z,30.0650,-87.5550,31.3,11111222 
NDBC,ioos:station:wmo:42012:1,2019-07-07T05:50:00Z,30.0650,-87.5550,31.4,11111222 
NDBC,ioos:station:wmo:42012:1,2019-07-07T06:50:00Z,30.0650,-87.5550,31.1,11111222 
NDBC,ioos:station:wmo:42012:1,2019-07-07T07:50:00Z,30.0650,-87.5550,31.1,11111222 
NDBC,ioos:station:wmo:42012:1,2019-07-07T08:50:00Z,30.0650,-87.5550,30.6,11111222 
NDBC,ioos:station:wmo:42012:1,2019-07-07T09:50:00Z,30.0650,-87.5550,30.4,11111222 
NDBC,ioos:station:wmo:42012:1,2019-07-07T10:50:00Z,30.0650,-87.5550,30.2,11111222 
NDBC,ioos:station:wmo:42012:1,2019-07-07T11:50:00Z,30.0650,-87.5550,29.6,11111222 
NDBC,ioos:station:wmo:42012:1,2019-07-07T12:50:00Z,30.0650,-87.5550,29.4,11111222 
NDBC,ioos:station:wmo:42012:1,2019-07-07T13:50:00Z,30.0650,-87.5550,29.5,11111222 
NDBC,ioos:station:wmo:42012:1,2019-07-07T14:50:00Z,30.0650,-87.5550,29.9,11111222 
NDBC,ioos:station:wmo:42012:1,2019-07-07T15:50:00Z,30.0650,-87.5550,29.9,11111222 
NDBC,ioos:station:wmo:42012:1,2019-07-07T16:50:00Z,30.0650,-87.5550,30.1,11111222 
NDBC,ioos:station:wmo:42012:1,2019-07-07T17:50:00Z,30.0650,-87.5550,30.5,11111222 
NDBC,ioos:station:wmo:42012:1,2019-07-07T18:50:00Z,30.0650,-87.5550,30.3,11111222 
NDBC,ioos:station:wmo:42012:1,2019-07-07T19:50:00Z,30.0650,-87.5550,30.3,11111222 
NDBC,ioos:station:wmo:42012:1,2019-07-07T20:50:00Z,30.0650,-87.5550,30.8,11111222 
NDBC,ioos:station:wmo:42012:1,2019-07-07T21:50:00Z,30.0650,-87.5550,31.0,11111222 
NDBC,ioos:station:wmo:42012:1,2019-07-07T22:50:00Z,30.0650,-87.5550,31.0,11111222 
NDBC,ioos:station:wmo:42012:1,2019-07-07T23:50:00Z,30.0650,-87.5550,31.0,11111222 
NDBC,ioos:station:wmo:42012:1,2019-07-08T00:50:00Z,30.0650,-87.5550,31.1,11111222 
NDBC,ioos:station:wmo:42012:1,2019-07-08T01:50:00Z,30.0650,-87.5550,31.0,11111222 
NDBC,ioos:station:wmo:42012:1,2019-07-08T03:00:00Z,30.0650,-87.5550,30.9,11111222 
NDBC,ioos:station:wmo:42012:1,2019-07-08T03:50:00Z,30.0650,-87.5550,31.0,11111222 
NDBC,ioos:station:wmo:42012:1,2019-07-08T04:50:00Z,30.0650,-87.5550,30.0,11111222 
NDBC,ioos:station:wmo:42012:1,2019-07-08T05:50:00Z,30.0650,-87.5550,29.7,11111222 
NDBC,ioos:station:wmo:42012:1,2019-07-08T06:50:00Z,30.0650,-87.5550,29.1,11111222 
NDBC,ioos:station:wmo:42012:1,2019-07-08T07:50:00Z,30.0650,-87.5550,28.7,11111222 
NDBC,ioos:station:wmo:42012:1,2019-07-08T08:50:00Z,30.0650,-87.5550,28.6,11111222 
NDBC,ioos:station:wmo:42012:1,2019-07-08T09:50:00Z,30.0650,-87.5550,29.0,11111222 
NDBC,ioos:station:wmo:42012:1,2019-07-08T10:50:00Z,30.0650,-87.5550,28.7,11111222 
NDBC,ioos:station:wmo:42012:1,2019-07-08T11:50:00Z,30.0650,-87.5550,28.8,11111222 
NDBC,ioos:station:wmo:42012:1,2019-07-08T12:50:00Z,30.0650,-87.5550,29.2,11111222 
NDBC,ioos:station:wmo:42012:1,2019-07-08T13:30:00Z,30.0650,-87.5550,29.0,11111222 
NDBC,ioos:station:wmo:42012:1,2019-07-08T14:50:00Z,30.0650,-87.5550,28.5,11111222 
NDBC,ioos:station:wmo:42012:1,2019-07-08T15:50:00Z,30.0650,-87.5550,28.6,11111222 
NDBC,ioos:station:wmo:42012:1,2019-07-08T16:50:00Z,30.0650,-87.5550,28.7,11111222 
NDBC,ioos:station:wmo:42012:1,2019-07-08T18:00:00Z,30.0650,-87.5550,28.7,11111222 
NDBC,ioos:station:wmo:42012:1,2019-07-08T18:50:00Z,30.0650,-87.5550,29.0,11111222 
NDBC,ioos:station:wmo:42012:1,2019-07-08T19:50:00Z,30.0650,-87.5550,29.7,11111222 
NDBC,ioos:station:wmo:42012:1,2019-07-08T20:50:00Z,30.0650,-87.5550,30.1,11111222 
NDBC,ioos:station:wmo:42012:1,2019-07-08T21:50:00Z,30.0650,-87.5550,30.4,11111222 
NDBC,ioos:station:wmo:42012:1,2019-07-08T22:50:00Z,30.0650,-87.5550,30.7,11111222 
NDBC,ioos:station:wmo:42012:1,2019-07-08T23:50:00Z,30.0650,-87.5550,30.8,11111222 
NDBC,ioos:station:wmo:42012:1,2019-07-09T00:50:00Z,30.0650,-87.5550,30.3,11111222 
NDBC,ioos:station:wmo:42012:1,2019-07-09T01:40:00Z,30.0650,-87.5550,29.7,11111222 
NDBC,ioos:station:wmo:42012:1,2019-07-09T02:50:00Z,30.0650,-87.5550,30.2,11111222 
NDBC,ioos:station:wmo:42012:1,2019-07-09T03:50:00Z,30.0650,-87.5550,30.4,11111222 
NDBC,ioos:station:wmo:42012:1,2019-07-09T04:50:00Z,30.0650,-87.5550,30.2,11111222 
NDBC,ioos:station:wmo:42012:1,2019-07-09T05:50:00Z,30.0650,-87.5550,30.0,11111222 
NDBC,ioos:station:wmo:42012:1,2019-07-09T06:50:00Z,30.0650,-87.5550,30.0,11111222 
NDBC,ioos:station:wmo:42012:1,2019-07-09T07:50:00Z,30.0650,-87.5550,29.6,11111222 
NDBC,ioos:station:wmo:42012:1,2019-07-09T08:50:00Z,30.0650,-87.5550,29.4,11111222 
NDBC,ioos:station:wmo:42012:1,2019-07-09T09:50:00Z,30.0650,-87.5550,29.1,11111222 
NDBC,ioos:station:wmo:42012:1,2019-07-09T10:50:00Z,30.0650,-87.5550,29.0,11111222 
NDBC,ioos:station:wmo:42012:1,2019-07-09T11:50:00Z,30.0650,-87.5550,28.9,11111222 
NDBC,ioos:station:wmo:42012:1,2019-07-09T12:50:00Z,30.0650,-87.5550,28.8,11111222 
NDBC,ioos:station:wmo:42012:1,2019-07-09T13:50:00Z,30.0650,-87.5550,29.1,11111222 
NDBC,ioos:station:wmo:42012:1,2019-07-09T14:50:00Z,30.0650,-87.5550,29.1,11111222 
NDBC,ioos:station:wmo:42012:1,2019-07-09T15:50:00Z,30.0650,-87.5550,28.9,11111222 
NDBC,ioos:station:wmo:42012:1,2019-07-09T16:50:00Z,30.0650,-87.5550,29.3,11111222 
NDBC,ioos:station:wmo:42012:1,2019-07-09T17:50:00Z,30.0650,-87.5550,29.7,11111222 
NDBC,ioos:station:wmo:42012:1,2019-07-09T18:50:00Z,30.0650,-87.5550,28.1,11111222 
NDBC,ioos:station:wmo:42012:1,2019-07-09T19:50:00Z,30.0650,-87.5550,26.2,11111222 
NDBC,ioos:station:wmo:42012:1,2019-07-09T20:50:00Z,30.0650,-87.5550,27.2,11111222 
NDBC,ioos:station:wmo:42012:1,2019-07-09T21:50:00Z,30.0650,-87.5550,28.0,11111222 
NDBC,ioos:station:wmo:42012:1,2019-07-09T22:50:00Z,30.0650,-87.5550,27.0,11111222 
NDBC,ioos:station:wmo:42012:1,2019-07-09T23:50:00Z,30.0650,-87.5550,26.8,11111222 
NDBC,ioos:station:wmo:42012:1,2019-07-10T00:50:00Z,30.0650,-87.5550,27.1,11111222 
NDBC,ioos:station:wmo:42012:1,2019-07-10T01:40:00Z,30.0650,-87.5550,27.9,11111222 
NDBC,ioos:station:wmo:42012:1,2019-07-10T02:50:00Z,30.0650,-87.5550,28.5,11111222 
NDBC,ioos:station:wmo:42012:1,2019-07-10T03:50:00Z,30.0650,-87.5550,27.5,11111222 
NDBC,ioos:station:wmo:42012:1,2019-07-10T04:50:00Z,30.0650,-87.5550,27.5,11111222 
NDBC,ioos:station:wmo:42012:1,2019-07-10T05:50:00Z,30.0650,-87.5550,27.9,11111222 
NDBC,ioos:station:wmo:42012:1,2019-07-10T06:50:00Z,30.0650,-87.5550,27.7,11111222 
NDBC,ioos:station:wmo:42012:1,2019-07-10T07:50:00Z,30.0650,-87.5550,27.2,11111222 
NDBC,ioos:station:wmo:42012:1,2019-07-10T08:50:00Z,30.0650,-87.5550,27.2,11111222 
NDBC,ioos:station:wmo:42012:1,2019-07-10T09:50:00Z,30.0650,-87.5550,27.0,11111222 
NDBC,ioos:station:wmo:42012:1,2019-07-10T10:50:00Z,30.0650,-87.5550,26.5,11111222 
NDBC,ioos:station:wmo:42012:1,2019-07-10T11:50:00Z,30.0650,-87.5550,26.3,11111222 
NDBC,ioos:station:wmo:42012:1,2019-07-10T12:50:00Z,30.0650,-87.5550,26.6,11111222 
NDBC,ioos:station:wmo:42012:1,2019-07-10T13:50:00Z,30.0650,-87.5550,26.8,11111222 
NDBC,ioos:station:wmo:42012:1,2019-07-10T14:50:00Z,30.0650,-87.5550,27.1,11111222 
NDBC,ioos:station:wmo:42012:1,2019-07-10T15:50:00Z,30.0650,-87.5550,27.4,11111222 
NDBC,ioos:station:wmo:42012:1,2019-07-10T16:50:00Z,30.0650,-87.5550,27.3,11111222 
NDBC,ioos:station:wmo:42012:1,2019-07-10T17:50:00Z,30.0650,-87.5550,27.5,11111222 
NDBC,ioos:station:wmo:42012:1,2019-07-10T18:50:00Z,30.0650,-87.5550,28.2,11111222 
NDBC,ioos:station:wmo:42012:1,2019-07-10T19:50:00Z,30.0650,-87.5550,28.8,11111222 
NDBC,ioos:station:wmo:42012:1,2019-07-10T20:50:00Z,30.0650,-87.5550,28.9,11111222 
NDBC,ioos:station:wmo:42012:1,2019-07-10T21:50:00Z,30.0650,-87.5550,29.2,11111222 
NDBC,ioos:station:wmo:42012:1,2019-07-10T22:50:00Z,30.0650,-87.5550,28.7,11111222 
NDBC,ioos:station:wmo:42012:1,2019-07-11T00:00:00Z,30.0650,-87.5550,29.3,11111222 
NDBC,ioos:station:wmo:42012:1,2019-07-11T00:50:00Z,30.0650,-87.5550,28.8,11111222 
NDBC,ioos:station:wmo:42012:1,2019-07-11T01:50:00Z,30.0650,-87.5550,29.2,11111222 
NDBC,ioos:station:wmo:42012:1,2019-07-11T02:50:00Z,30.0650,-87.5550,28.2,11111222 
NDBC,ioos:station:wmo:42012:1,2019-07-11T03:50:00Z,30.0650,-87.5550,27.6,11111222 
NDBC,ioos:station:wmo:42012:1,2019-07-11T04:50:00Z,30.0650,-87.5550,29.2,11111222 
NDBC,ioos:station:wmo:42012:1,2019-07-11T05:50:00Z,30.0650,-87.5550,28.8,11111222 
NDBC,ioos:station:wmo:42012:1,2019-07-11T06:50:00Z,30.0650,-87.5550,29.0,11111222 
NDBC,ioos:station:wmo:42012:1,2019-07-11T07:50:00Z,30.0650,-87.5550,28.8,11111222 
NDBC,ioos:station:wmo:42012:1,2019-07-11T08:50:00Z,30.0650,-87.5550,28.5,11111222 
NDBC,ioos:station:wmo:42012:1,2019-07-11T09:50:00Z,30.0650,-87.5550,28.4,11111222 
NDBC,ioos:station:wmo:42012:1,2019-07-11T10:50:00Z,30.0650,-87.5550,28.5,11111222 
NDBC,ioos:station:wmo:42012:1,2019-07-11T11:50:00Z,30.0650,-87.5550,27.8,11111222 
NDBC,ioos:station:wmo:42012:1,2019-07-11T12:50:00Z,30.0650,-87.5550,28.2,11111222 
NDBC,ioos:station:wmo:42012:1,2019-07-11T13:30:00Z,30.0650,-87.5550,28.2,11111222 
NDBC,ioos:station:wmo:42012:1,2019-07-11T14:50:00Z,30.0650,-87.5550,28.7,11111222 
NDBC,ioos:station:wmo:42012:1,2019-07-11T15:50:00Z,30.0650,-87.5550,27.3,11111222 
NDBC,ioos:station:wmo:42012:1,2019-07-11T16:50:00Z,30.0650,-87.5550,29.1,11111222 
NDBC,ioos:station:wmo:42012:1,2019-07-11T17:50:00Z,30.0650,-87.5550,29.0,11111222 
NDBC,ioos:station:wmo:42012:1,2019-07-11T18:50:00Z,30.0650,-87.5550,29.1,11111222 
NDBC,ioos:station:wmo:42012:1,2019-07-11T19:50:00Z,30.0650,-87.5550,27.6,11111222 
NDBC,ioos:station:wmo:42012:1,2019-07-11T20:50:00Z,30.0650,-87.5550,27.9,11111222 
NDBC,ioos:station:wmo:42012:1,2019-07-11T21:50:00Z,30.0650,-87.5550,28.3,11111222 
NDBC,ioos:station:wmo:42012:1,2019-07-11T22:30:00Z,30.0650,-87.5550,28.7,11111222 
NDBC,ioos:station:wmo:42012:1,2019-07-11T22:40:00Z,30.0650,-87.5550,28.8,11111222 
NDBC,ioos:station:wmo:42012:1,2019-07-12T01:50:00Z,30.0650,-87.5550,28.9,11111222 
NDBC,ioos:station:wmo:42012:1,2019-07-12T02:50:00Z,30.0650,-87.5550,28.2,11111222 
NDBC,ioos:station:wmo:42012:1,2019-07-12T03:50:00Z,30.0650,-87.5550,28.1,11111222 
NDBC,ioos:station:wmo:42012:1,2019-07-12T04:50:00Z,30.0650,-87.5550,28.5,11111222 
NDBC,ioos:station:wmo:42012:1,2019-07-12T05:50:00Z,30.0650,-87.5550,28.7,11111222 
NDBC,ioos:station:wmo:42012:1,2019-07-12T06:50:00Z,30.0650,-87.5550,28.6,11111222 
NDBC,ioos:station:wmo:42012:1,2019-07-12T07:50:00Z,30.0650,-87.5550,28.5,11111222 
NDBC,ioos:station:wmo:42012:1,2019-07-12T08:50:00Z,30.0650,-87.5550,28.6,11111222 
NDBC,ioos:station:wmo:42012:1,2019-07-12T09:50:00Z,30.0650,-87.5550,28.2,11111222 
NDBC,ioos:station:wmo:42012:1,2019-07-12T10:50:00Z,30.0650,-87.5550,28.4,11111222 
NDBC,ioos:station:wmo:42012:1,2019-07-12T11:50:00Z,30.0650,-87.5550,27.8,11111222 
NDBC,ioos:station:wmo:42012:1,2019-07-12T12:50:00Z,30.0650,-87.5550,27.7,11111222 
NDBC,ioos:station:wmo:42012:1,2019-07-12T13:50:00Z,30.0650,-87.5550,26.9,11111222 
NDBC,ioos:station:wmo:42012:1,2019-07-12T14:50:00Z,30.0650,-87.5550,27.7,11111222 
NDBC,ioos:station:wmo:42012:1,2019-07-12T15:50:00Z,30.0650,-87.5550,28.5,11111222 
NDBC,ioos:station:wmo:42012:1,2019-07-12T16:50:00Z,30.0650,-87.5550,28.6,11111222 
NDBC,ioos:station:wmo:42012:1,2019-07-12T17:50:00Z,30.0650,-87.5550,28.8,11111222 
NDBC,ioos:station:wmo:42012:1,2019-07-12T18:50:00Z,30.0650,-87.5550,29.0,11111222 
NDBC,ioos:station:wmo:42012:1,2019-07-12T19:50:00Z,30.0650,-87.5550,28.8,11111222 
NDBC,ioos:station:wmo:42012:1,2019-07-12T20:50:00Z,30.0650,-87.5550,28.7,11111222 
NDBC,ioos:station:wmo:42012:1,2019-07-12T21:50:00Z,30.0650,-87.5550,28.4,11111222 
NDBC,ioos:station:wmo:42012:1,2019-07-12T22:50:00Z,30.0650,-87.5550,27.7,11111222 
NDBC,ioos:station:wmo:42012:1,2019-07-12T23:50:00Z,30.0650,-87.5550,27.8,11111222 
NDBC,ioos:station:wmo:42012:1,2019-07-13T00:40:00Z,30.0650,-87.5550,27.6,11111222 
NDBC,ioos:station:wmo:42012:1,2019-07-13T01:50:00Z,30.0650,-87.5550,27.1,11111222 